Overview Statistics Trail Chart Weather Telemetry Raw packets
 

This is the latest recevied weather packets stored in our database for station/object EA2MKR. If no packets are shown the sender has not sent any weather packets the latest 10 day(s).

<< 36 37 38 39 40 41 42 >>
Time Temp. Humidity Pressure Rain* Wind** Luminosity Snow
1788379219 20° C 77% 961.2 hPa 0 mm - - -
1788378905 20.56° C 77% 961.1 hPa 0 mm - - -
1788378713 20.56° C 77% 961 hPa 0 mm - - -
1788378287 20.56° C 75% 961 hPa 0 mm - - -
1788378105 20.56° C 75% 960.9 hPa 0 mm - - -
1788377803 20.56° C 75% 960.8 hPa 0 mm - - -
1788377378 21.11° C 75% 960.7 hPa 0 mm - - -
1788377203 21.11° C 75% 960.6 hPa 0 mm - - -
1788376771 21.11° C 74% 960.6 hPa 0 mm - - -
1788376576 21.11° C 74% 960.4 hPa 0 mm - - -
1788376171 21.67° C 73% 960.4 hPa 0 mm - - -
1788375871 21.67° C 72% 960.4 hPa 0 mm - - -
1788375571 21.67° C 71% 960.4 hPa 0 mm - - -
1788375271 22.22° C 71% 960.3 hPa 0 mm - - -
1788374971 22.22° C 70% 960.3 hPa 0 mm - - -
1788374672 22.22° C 69% 960.1 hPa 0 mm - - -
1788374371 22.78° C 68% 960 hPa 0 mm - - -
1788374070 23.33° C 62% 959.9 hPa 0 mm - - -
1788373771 23.33° C 62% 959.8 hPa 0 mm - - -
1788373450 24.44° C 62% 959.8 hPa 0 mm - - -
1788373150 24.44° C 62% 959.7 hPa 0 mm - - -
1788372848 24.44° C 62% 959.6 hPa 0 mm - - -
1788372545 24.44° C 62% 959.6 hPa 0 mm - - -
1788372244 25° C 61% 959.4 hPa 0 mm - - -
1788371946 25.56° C 59% 959.5 hPa 0 mm - - -

* Rain latest hour (hover to see other rain measurements)
** Current wind speed in m/s (hover to see current wind gust speed)